Bookmark and Share
Track history (hours):
 

Pride Of Kent

Operator: P & O Ferries

Last reported at 2014-Apr-24 08:17 UTC. Time now 2014-Apr-24 09:21 UTC.
Position N 50°59' E 001°40'.

Length 180 m; draft 5.8 m.

Type: Passenger vessel. MMSI: 233009000.

NotesDate/timePositionNaut miles runAvg speedWind from/ knotsBaromVisibWave heightAir tempDewpointWater temp
2014-Apr-24 08:17N 50°59' E 001°40'1318.2
2014-Apr-24 07:34N 51°07' E 001°23'2 1.6
2014-Apr-24 06:23N 51°07' E 001°20'1012.2
2014-Apr-24 05:34N 51°03' E 001°35'1110.6
2014-Apr-24 04:29N 50°58' E 001°51'2 2.3
2014-Apr-24 03:31N 50°58' E 001°47'1616.2
2014-Apr-24 02:33N 51°05' E 001°25'2 0.9
2014-Apr-24 00:34N 51°06' E 001°28'1414.4
2014-Apr-23 23:33N 50°58' E 001°47'11 5.4
2014-Apr-23 21:30N 51°02' E 001°30'8 7.2
2014-Apr-23 20:20N 51°07' E 001°20'810.3
2014-Apr-23 19:33N 51°04' E 001°32'1410.2
2014-Apr-23 18:13N 50°58' E 001°51'9 9.6
2014-Apr-23 17:20N 50°58' E 001°37'13 6.9
2014-Apr-23 15:26N 51°07' E 001°22'1819.9
2014-Apr-23 14:33N 50°58' E 001°47'2 1.6
2014-Apr-23 13:10N 50°58' E 001°50'1315.9
2014-Apr-23 12:21N 51°02' E 001°30'3 1.7
2014-Apr-23 10:34N 51°05' E 001°30'1510.0
2014-Apr-23 09:03N 50°58' E 001°52'1912.4
2014-Apr-23 07:33N 51°06' E 001°25'3 2.8
2014-Apr-23 06:20N 51°07' E 001°20'1113.5
2014-Apr-23 05:33N 51°02' E 001°35'1111.0
2014-Apr-23 04:33N 50°58' E 001°51'2 1.9
2014-Apr-23 03:32N 50°58' E 001°48'1515.4
2014-Apr-23 02:33N 51°04' E 001°26'5 4.5
2014-Apr-23 01:26N 51°07' E 001°20'4 4.1
2014-Apr-23 00:33N 51°07' E 001°26'1614.6
2014-Apr-22 23:29N 50°58' E 001°47'2 1.9
2014-Apr-22 22:17N 50°58' E 001°50'1416.1
2014-Apr-22 21:26N 51°03' E 001°30'8 7.3
2014-Apr-22 20:23N 51°07' E 001°20'7 8.9
2014-Apr-22 19:34N 51°04' E 001°31'1410.6
2014-Apr-22 18:13N 50°58' E 001°51'9 8.2
2014-Apr-22 17:06N 51°00' E 001°37'1017.9
2014-Apr-22 16:33N 51°06' E 001°24'3 2.7
2014-Apr-22 15:32N 51°07' E 001°20'1918.9
2014-Apr-22 14:31N 50°58' E 001°47'10 4.9
2014-Apr-22 12:33N 51°02' E 001°33'4 1.8
2014-Apr-22 10:33N 51°05' E 001°30'1512.5
2014-Apr-22 09:21N 50°58' E 001°52'1 0.7
2014-Apr-22 08:29N 50°58' E 001°51'1718.0
2014-Apr-22 07:34N 51°05' E 001°26'3 2.2
2014-Apr-22 06:09N 51°07' E 001°23'2011.2
2014-Apr-22 04:22N 50°58' E 001°51'18 9.9
2014-Apr-22 02:33N 51°05' E 001°25'1 0.7
2014-Apr-22 00:33N 51°06' E 001°27'1515.5
2014-Apr-21 23:34N 50°58' E 001°48'2 1.8
2014-Apr-21 22:31N 50°58' E 001°51'1212.6
2014-Apr-21 21:31N 51°03' E 001°33'3 1.4
2014-Apr-21 19:34N 51°05' E 001°30'1513.3
2014-Apr-21 18:27N 50°58' E 001°51'4 3.6
2014-Apr-21 17:22N 50°58' E 001°45'1718.6
2014-Apr-21 16:29N 51°07' E 001°22'0 0.5
2014-Apr-21 15:31N 51°07' E 001°22'1818.5
2014-Apr-21 14:33N 50°58' E 001°47'3 2.2
2014-Apr-21 13:21N 50°58' E 001°52'1315.8
2014-Apr-21 12:33N 51°02' E 001°32'10 8.2
2014-Apr-21 11:22N 51°07' E 001°20'911.1
2014-Apr-21 10:34N 51°04' E 001°33'1311.9
2014-Apr-21 09:28N 50°58' E 001°52'5 4.7
2014-Apr-21 08:21N 50°58' E 001°43'1417.7
2014-Apr-21 07:33N 51°05' E 001°25'4 3.0
2014-Apr-21 06:21N 51°07' E 001°20'1013.0
2014-Apr-21 05:33N 51°03' E 001°35'11 9.1
2014-Apr-21 04:18N 50°58' E 001°51'2 2.3
2014-Apr-21 03:33N 50°58' E 001°48'1515.3
2014-Apr-21 02:33N 51°04' E 001°26'5 4.0
2014-Apr-21 01:21N 51°07' E 001°20'4 5.6
2014-Apr-21 00:33N 51°06' E 001°27'1615.8
2014-Apr-20 23:34N 50°58' E 001°48'1 1.2
2014-Apr-20 22:30N 50°58' E 001°51'1415.3
2014-Apr-20 21:34N 51°02' E 001°28'7 6.0
2014-Apr-20 20:19N 51°07' E 001°20'810.7
2014-Apr-20 19:34N 51°06' E 001°33'1412.3
2014-Apr-20 18:26N 50°58' E 001°51'3 3.1
2014-Apr-20 17:31N 50°58' E 001°46'1515.3
2014-Apr-20 16:34N 51°04' E 001°26'3 2.7
2014-Apr-20 15:22N 51°07' E 001°23'1517.1
2014-Apr-20 14:31N 50°59' E 001°43'9 4.0
2014-Apr-20 12:18N 51°03' E 001°30'8 8.3
2014-Apr-20 11:23N 51°07' E 001°20'7 8.4
2014-Apr-20 10:33N 51°04' E 001°30'1514.0
2014-Apr-20 09:29N 50°58' E 001°52'6 5.1
2014-Apr-20 08:18N 50°58' E 001°42'1519.2
2014-Apr-20 07:32N 51°06' E 001°23'1 0.7
2014-Apr-20 05:33N 51°07' E 001°25'15 6.8
2014-Apr-20 03:23N 50°58' E 001°44'1315.6
2014-Apr-20 02:32N 51°05' E 001°25'2 1.0
2014-Apr-20 00:33N 51°07' E 001°25'17 7.3
2014-Apr-19 22:17N 50°58' E 001°48'1215.2
2014-Apr-19 21:29N 51°02' E 001°29'8 8.8
2014-Apr-19 20:33N 51°07' E 001°20'8 8.2
2014-Apr-19 19:34N 51°05' E 001°33'14 9.8
2014-Apr-19 18:10N 50°58' E 001°51'0 0.6
2014-Apr-19 17:31N 50°58' E 001°50'1616.8
2014-Apr-19 16:33N 51°05' E 001°27'4 2.8
2014-Apr-19 15:17N 51°07' E 001°23'1418.7
2014-Apr-19 14:32N 50°60' E 001°42'6 6.4
2014-Apr-19 13:32N 50°58' E 001°52'1612.9
2014-Apr-19 12:16N 51°03' E 001°27'5 2.8
2014-Apr-19 10:33N 51°03' E 001°34'1210.3
2014-Apr-19 09:24N 50°58' E 001°52'5 5.4
2014-Apr-19 08:29N 50°58' E 001°44'1616.8
2014-Apr-19 07:33N 51°06' E 001°23'7 3.6
2014-Apr-19 05:33N 51°04' E 001°33'6 2.8
2014-Apr-19 03:15N 50°58' E 001°36'1015.1
2014-Apr-19 02:34N 51°05' E 001°25'1 0.5
2014-Apr-19 00:34N 51°06' E 001°27'1514.7
2014-Apr-18 23:31N 50°58' E 001°48'2 2.0
2014-Apr-18 22:19N 50°58' E 001°44'1214.7
2014-Apr-18 21:28N 51°04' E 001°27'5 2.6
2014-Apr-18 19:34N 51°03' E 001°35'11 9.0
2014-Apr-18 18:17N 50°58' E 001°51'1414.5
2014-Apr-18 17:19N 51°03' E 001°30'3 1.6
2014-Apr-18 15:34N 51°06' E 001°28'1615.7
2014-Apr-18 14:32N 50°58' E 001°51'4 3.0
2014-Apr-18 13:20N 50°58' E 001°45'1620.5
2014-Apr-18 12:33N 51°06' E 001°24'1 1.0
2014-Apr-18 11:14N 51°07' E 001°23'1217.0
2014-Apr-18 10:33N 51°01' E 001°39'8 6.8
2014-Apr-18 09:22N 50°58' E 001°51'20 6.1
2014-Apr-18 06:06N 51°07' E 001°23'917.5
2014-Apr-18 05:33N 51°03' E 001°36'10 8.5
2014-Apr-18 04:20N 50°58' E 001°51'6 7.0
2014-Apr-18 03:27N 50°58' E 001°41'1314.3
2014-Apr-18 02:33N 51°06' E 001°24'3 1.5
2014-Apr-18 00:34N 51°06' E 001°29'1612.3
2014-Apr-17 23:15N 50°58' E 001°51'3 3.7
2014-Apr-17 22:31N 50°58' E 001°47'1414.6
2014-Apr-17 21:33N 51°04' E 001°27'5 3.5
2014-Apr-17 20:04N 51°07' E 001°20'816.6
2014-Apr-17 19:33N 51°03' E 001°32'1313.0
2014-Apr-17 18:33N 50°58' E 001°51'7 6.5
2014-Apr-17 17:29N 50°59' E 001°40'1512.2
2014-Apr-17 16:14N 51°07' E 001°20'2 2.1
2014-Apr-17 15:30N 51°07' E 001°22'1718.1
2014-Apr-17 14:33N 50°58' E 001°45'4 3.7
2014-Apr-17 13:30N 50°58' E 001°52'1414.9
2014-Apr-17 12:32N 51°03' E 001°30'8 7.8
2014-Apr-17 11:32N 51°07' E 001°20'9 8.8
2014-Apr-17 10:33N 51°03' E 001°32'13 9.3
2014-Apr-17 09:07N 50°58' E 001°52'4 7.3
2014-Apr-17 08:33N 50°58' E 001°45'1717.5
2014-Apr-17 07:33N 51°07' E 001°22'1 1.1
2014-Apr-17 06:33N 51°07' E 001°20'9 8.9
2014-Apr-17 05:34N 51°03' E 001°33'1312.0
2014-Apr-17 04:30N 50°58' E 001°51'2 2.1
2014-Apr-17 03:33N 50°58' E 001°48'1615.5
2014-Apr-17 02:34N 51°05' E 001°26'4 3.7
2014-Apr-17 01:25N 51°07' E 001°20'5 6.4
2014-Apr-17 00:33N 51°06' E 001°28'1414.3
2014-Apr-16 23:33N 50°58' E 001°48'1 1.0
2014-Apr-16 22:13N 50°58' E 001°46'1116.3
2014-Apr-16 21:32N 51°04' E 001°31'1 0.5
2014-Apr-16 19:34N 51°04' E 001°32'1311.8
2014-Apr-16 18:27N 50°58' E 001°51'4 4.5
2014-Apr-16 17:31N 50°58' E 001°44'1813.4
2014-Apr-16 16:11N 51°07' E 001°20'1 2.2
2014-Apr-16 15:32N 51°07' E 001°22'1918.3
2014-Apr-16 14:30N 50°58' E 001°49'2 1.5
2014-Apr-16 13:28N 50°58' E 001°52'1415.0
2014-Apr-16 12:33N 51°01' E 001°30'3 1.5
2014-Apr-16 10:34N 51°03' E 001°35'5 2.1
2014-Apr-16 08:15N 50°58' E 001°37'14 6.9
2014-Apr-16 06:13N 51°07' E 001°20'1116.4
2014-Apr-16 05:33N 51°03' E 001°36'6 2.1
2014-Apr-16 02:33N 51°05' E 001°27'5 3.6
2014-Apr-16 01:17N 51°07' E 001°20'5 6.5
2014-Apr-16 00:34N 51°06' E 001°27'1715.1
2014-Apr-15 23:27N 50°58' E 001°51'0 0.2
2014-Apr-15 22:21N 50°58' E 001°50'1518.2
2014-Apr-15 21:33N 51°04' E 001°29'7 6.2
2014-Apr-15 20:28N 51°07' E 001°20'1111.7
2014-Apr-15 19:33N 51°02' E 001°35'6 3.0
2014-Apr-15 17:32N 50°59' E 001°43'1713.4
2014-Apr-15 16:17N 51°07' E 001°20'3 4.2
2014-Apr-15 15:33N 51°07' E 001°25'19 6.2
2014-Apr-15 12:30N 50°58' E 001°52'1616.8
2014-Apr-15 11:33N 51°04' E 001°28'5 2.6
2014-Apr-15 09:34N 51°03' E 001°36'7 0.7
2014-Apr-14 23:34N 51°07' E 001°26'1716.4
2014-Apr-14 22:32N 50°58' E 001°49'15 7.5
2014-Apr-14 20:34N 51°04' E 001°28'10 4.9
2014-Apr-14 18:34N 50°60' E 001°42'7 3.5
2014-Apr-14 16:33N 51°01' E 001°31'4 1.8
2014-Apr-14 14:34N 51°04' E 001°33'4 1.4
2014-Apr-14 11:34N 51°05' E 001°27'10 4.9
2014-Apr-14 09:33N 50°60' E 001°40'  

Dump ship's entire track history

sailing weather and tide predictions

Pride Of Kent — MQCJ2 — position and weather